Regional Weather Roundup
Issued by NWS Mobile, AL

Home | Current Version | Previous Version | Text Only | Print | Product List | Glossary On
Versions: 1 2 3 4 5 6 7 8 9 10 11 12 13 14 15 16 17 18 19 20 21 22 23 24 25 26 27 28 29 30 31 32 33 34 35 36 37 38 39 40 41 42 43 44 45 46 47 48 49 50
000
ASUS44 KMOB 060212
RWRMOB
REGIONAL WEATHER ROUNDUP
NATIONAL WEATHER SERVICE MOBILE AL
900 PM CDT THU MAY 05 2016

NOTE: "FAIR" INDICATES FEW OR NO CLOUDS BELOW 12,000 FEET WITH NO
      SIGNIFICANT WEATHER AND/OR OBSTRUCTIONS TO VISIBILITY.

  * THESE STATIONS ARE PART OF THE UNIVERSITY OF SOUTH ALABAMA
    MESONET AND ARE NOT UNDER NWS OR FAA QUALITY CONTROL.

ALZ061>064-060300-
COASTAL ALABAMA

CITY           SKY/WX    TMP DP  RH WIND       PRES   REMARKS
MOBILE REG APT PTCLDY    61  45  55 NW7       29.91R
BROOKLEY FIELD CLEAR     64  46  52 NW5       29.91R
USA CAMPUS*    NOT AVBL
DOG RIVER*     NOT AVBL


CITY           SKY/WX    TMP DP  RH WIND       PRES   REMARKS
MOUNT VERNON*  NOT AVBL
SARALAND*      NOT AVBL
BAY MINETTE*   NOT AVBL
LOXLEY*        NOT AVBL
ROBERTSDALE*   NOT AVBL
FAIRHOPE*      NOT AVBL
ELBERTA*       NOT AVBL
FOLEY*         NOT AVBL
GRAND BAY*     NOT AVBL
DAUPHIN ISLND* NOT AVBL
BON SCOUR NWR* NOT AVBL
GULF SHORES    CLEAR     62  47  58 W7        29.89R

$$

ALZ051>060-060300-
INTERIOR SOUTHWEST AND SOUTH CENTRAL ALABAMA

CITY           SKY/WX    TMP DP  RH WIND       PRES   REMARKS
GREENVILLE     NOT AVBL
EVERGREEN      CLEAR     56  47  71 CALM      29.88R
CASTLEBERRY*   NOT AVBL
ATMORE*        NOT AVBL
DIXIE*         NOT AVBL
ANDALUSIA/OPP  CLEAR     64  43  46 CALM      29.86R
ANDALUSIA*     NOT AVBL
FLORALA APT    PTCLDY    57  45  64 CALM      29.88R
FLORALA*       NOT AVBL

$$

FLZ001>006-060300-
WESTERN FLORIDA PANHANDLE

CITY           SKY/WX    TMP DP  RH WIND       PRES   REMARKS
PENSACOLA      CLEAR     66  41  40 NW5       29.88R
NAS PENSACOLA  CLEAR     61  44  53 CALM      29.88R
MILTON         CLEAR     59  41  51 W3        29.88R
WHTNG S FIELD  CLEAR     60  45  57 NW3       29.88R


CITY           SKY/WX    TMP DP  RH WIND       PRES   REMARKS
WALNUT HILL*   NOT AVBL
JAY*           NOT AVBL
DUKE FIELD     PTCLDY    58  40  50 CALM      29.86R
CRESTVIEW      CLEAR     56  43  61 CALM      29.88R
VALPARAISO     PTCLDY    64  41  42 W2        29.87R
DESTIN         CLEAR     70  43  37 N7        29.87R

$$

MSZ076-079-060300-
INTERIOR SOUTHEAST MISSISSIPPI

CITY           SKY/WX    TMP DP  RH WIND       PRES   REMARKS
LEAKESVILLE*   NOT AVBL
AGRICOLA*      NOT AVBL

$$

MARINE OBSERVATIONS

STATION/POSITION TIME  TEMP    WIND        PRES    WAVE
                       AIR SEA DIR/SP/G            HT/PER
                 (UTC) (F)     (DEG/KT/KT) (MB)    (FT/S)
PASCAGOULA       0100   70                 1011.5R
PETIT BOIS ISLND 0130                      1012.5R
GRAND BAY        0000   73     350/  7     1012.0S
KATRINA CUT      0100   73     350/ 14       N/A
CEDAR POINT      0100   70     350/  7     1011.2R
E DAUPHIN ISLAND 0100   73     330/ 12/ 13 1011.4R
MIDDLE BAY LIGHT 0100   73     340/ 16     1011.2R
USCG MOBILE BAY  0100   71 74              1012.1R
STATE DOCKS      0100   71                 1011.5R
MEAHER PARK      0100   69     340/  4     1011.2R
WEEKS BAY        0045   69                   N/A
FORT MORGAN      0100   73                 1010.9R
12 S ORANGE BCH  0150   73 75  350/ 16/ 19 1011.1R   2/ 3
PENSACOLA BAY    0100                      1011.4R
64 S DAUPHIN ISL 0100   73 74  290/ 10/ 12 1011.3R

$$

SELECTED LOCATIONS ACROSS THE REGION

CITY           SKY/WX    TMP DP  RH WIND       PRES   REMARKS
NEW ORLEANS    PTCLDY    74  46  36 N10       29.92R
GULFPORT       CLEAR     68  44  42 N10       29.91R
PASCAGOULA AP  CLEAR     64  46  52 NW5       29.91R
PASCAGOULA*    NOT AVBL
HATTIESBURG    CLEAR     64  42  44 CALM      29.93R
LAUREL         PTCLDY    61  43  51 NW3       29.94R
MERIDIAN       CLEAR     62  39  42 N7        29.92R
JACKSON        CLEAR     63  40  42 N7        29.94R
MONTGOMERY     CLEAR     61  43  51 W6        29.87R
TROY           CLEAR     60  45  57 NW5       29.86R
KINSTON*       NOT AVBL
GENEVA*        NOT AVBL
ASHFORD*       NOT AVBL
DOTHAN         PTCLDY    63  40  42 NW6       29.87R
PANAMA CITY    CLEAR     61  44  53 NW5       29.86R

$$




USA.gov is the U.S. government's official web portal to all federal, state and local government web resources and services.